Reflectivity
-20 -20 -20 -20 11 3 -20 -20 -20 -20 -20 -20 -20 -20 -20 -20 -20 -20 -20 -20 -20 -20 -20 -20 -20 -20 -20 -20 -20 -20 -2 -1 -12
-20 -20 -20 -5 -20 -8 -20 -20 -20 -20 -20 -20 -20 -20 -20 -20 -20 -20 -20 -20 -20 -20 -20 -20 -20 -20 -20 -20 -20 -20 -7 -20 3
-20 -20 -20 -6 -12 -14 -20 -20 -20 -20 -20 -20 -20 -20 -20 -20 -20 -20 -20 -20 -20 -20 -20 -20 -20 -20 -20 -20 -20 -20 -1 -1 -5
-20 -9 -20 2 4 2 -20 -20 -20 -20 -20 -20 -20 -20 -20 -20 -20 -20 -20 -20 -20 -20 -20 -20 -20 -20 -20 -20 -20 -20 -9 -15 -20
11 3 1 9 7 -5 -20 -20 -20 -20 -20 -20 -20 -20 -20 -20 -20 -20 -20 -20 -20 -20 -20 -20 -20 -20 -20 -20 -20 -20 -20 -20 -2
-20 -20 -6 5 -4 -20 -20 -20 -20 -20 -20 -20 -20 -20 -20 -20 -20 -20 -20 -20 -20 -20 -20 -20 -20 -20 -20 -20 -20 -20 -20 -20 -20
-20 -20 -20 -20 -20 -20 -20 -20 -20 -20 -20 -20 -20 -20 -20 -20 -20 -20 -20 -20 -20 -20 -20 -20 -20 -20 -20 -20 -20 -20 -20 -20 -20
-20 -20 -20 -20 -20 -20 -20 -20 -20 -20 -20 -20 -20 -20 -20 -20 -20 -20 -20 -20 -20 -20 -20 -20 -20 -20 -20 -20 -20 -20 -20 -20 -20
-20 -20 -20 -20 -20 -20 -20 -20 -20 -20 -20 -20 -20 -20 -20 -20 -20 -20 -20 -20 -20 -20 -20 -20 -20 -20 -20 -20 -20 -20 -20 -20 -20
-20 -20 -20 -20 -20 -20 -20 -20 -20 -20 -20 -20 -20 -20 -20 -20 -20 -20 -20 -20 -20 -20 -20 -20 -20 -20 -20 -20 -20 -20 -20 -20 -20
-20 -20 -20 -20 -20 -20 -20 -20 -20 -20 -20 -20 -20 -20 -20 -20 -20 -20 -20 -20 -20 -20 -9 -20 -20 -20 -20 -20 -20 -20 -20 -20 -20
-20 -20 -20 -20 -20 -20 -20 -20 -20 -20 -20 -20 -20 -20 -20 -20 -20 -20 -20 -20 -20 -20 -20 24 -19 6 11 3 -11 -12 -20 -20 -20
-20 -20 -20 -20 -20 -20 -20 -20 -20 -20 -20 -20 -20 -20 -20 -20 -20 -20 -20 -20 -20 -20 -20 -20 -20 -20 -20 -20 3 -0 -10 6 -19
-20 -20 -20 -20 -20 -20 -20 -20 -20 -20 -20 -20 -20 -20 -20 -20 -20 -20 -18 -20 -20 -20 -20 -20 -20 -20 -20 -20 -10 9 30 -9 -1
-20 -20 -20 -20 -20 -20 -20 -20 -20 -20 -20 -20 -20 -20 -20 -20 -20 -20 -20 -20 -20 -20 -20 -20 -9 6 2 -20 -14 9 8 13 8
-20 -20 -20 -20 -20 -20 -20 -20 -20 -20 -20 -20 -20 -13 -20 -20 -20 -20 -20 -20 -20 -20 -20 -20 -20 -20 -20 -20 -20 -20 -20 -20 -20
-20 -20 -20 -20 -20 -20 -20 -20 -20 -20 -20 -20 -20 2 10 -20 -20 -20 -18 -19 -20 -16 18 21 7 -20 -20 -20 -20 -20 -20 -20 -20
-20 -20 -20 -20 -20 -12 -20 -20 -20 -20 -17 3 13 28 26 8 12 23 18 8 -20 17 22 1 -20 4 -20 -20 -20 -20 -16 -20 -20
14 -17 15 14 -17 28 9 6 19 31 17 27 31 31 33 29 16 -10 9 20 13 11 13 10 21 4 3 -20 -20 -14 -20 -20 -20
26 30 29 29 27 32 34 37 28 15 6 -3 1 17 12 34 33 28 25 16 11 16 21 19 27 30 -19 -1 8 -20 -20 -20 -20
Wind_Speed
19 19 17 16 16 17 16 15 17 15 15 14 15 15 15 12 7 6 8 5 13 14 14 14 14 15 15 15 16 16 16 16 16
19 19 16 15 16 17 15 16 16 15 14 14 15 14 13 6 6 6 5 6 14 14 14 15 15 14 15 15 15 15 15 16 16
19 18 16 16 17 16 15 15 15 14 14 13 13 12 10 6 6 5 4 11 13 14 14 14 14 14 14 14 15 14 15 14 15
18 16 15 15 15 14 13 13 12 12 13 12 11 11 10 6 4 4 3 10 13 13 13 13 13 13 13 13 13 12 14 14 14
14 12 13 13 13 12 11 11 12 12 11 11 10 9 9 5 4 3 3 10 12 12 12 12 12 12 12 12 12 12 12 12 13
8 9 11 11 11 10 11 10 10 10 9 8 8 7 3 4 2 1 6 10 10 10 10 10 10 11 11 11 11 10 11 12 12
6 8 11 11 10 9 9 10 10 6 3 3 4 2 3 3 1 0 5 8 9 9 9 9 9 9 9 9 9 10 10 10 10
3 3 3 4 6 3 5 5 4 5 3 3 2 3 3 1 1 1 2 5 7 7 7 7 7 8 8 8 8 8 8 8 9
4 3 4 4 3 4 3 2 2 3 3 2 1 2 3 2 2 2 4 3 5 6 6 6 6 6 6 7 7 6 7 6 6
4 4 4 4 3 3 3 3 2 1 0 2 1 1 3 3 2 2 5 5 4 5 5 5 6 5 5 6 6 5 6 5 5
4 4 4 4 4 3 3 3 3 2 1 1 1 1 1 2 3 2 3 5 7 6 7 7 6 5 5 5 5 6 6 5 4
6 4 4 4 4 4 3 2 1 1 1 2 1 2 3 3 3 3 3 3 6 7 9 7 7 7 8 9 10 9 8 8 7
6 5 4 4 4 3 3 2 1 1 1 2 2 2 3 4 4 4 4 4 3 5 8 8 7 6 8 6 8 11 11 11 11
6 5 5 5 4 4 3 2 2 2 2 3 3 3 3 3 3 4 5 5 4 3 5 7 7 5 5 5 6 3 13 14 13
5 4 4 5 4 4 3 4 3 3 3 3 3 3 4 3 3 3 2 3 4 4 5 3 1 1 1 3 5 8 4 7 15
8 5 5 5 6 5 5 3 5 3 1 1 2 2 2 1 1 1 2 2 2 3 2 2 3 3 10 9 7 6 6 5 5
7 6 6 6 4 5 5 3 2 1 2 0 2 3 1 2 3 3 1 2 1 3 3 1 4 3 2 5 7 5 4 4 4
7 6 6 6 5 4 4 5 4 3 2 2 1 2 3 2 2 3 2 1 3 3 3 3 2 2 3 3 3 4 5 5 4
6 5 4 4 2 3 3 4 3 1 3 1 3 4 3 3 3 1 1 2 2 3 3 3 1 1 2 2 2 3 4 4 5
6 4 3 3 2 3 7 6 5 4 4 5 2 2 3 4 3 2 1 0 2 1 3 2 1 2 2 2 3 4 3 4 5
Wind_Direction
127 125 121 125 121 112 106 109 112 107 102 102 98 96 91 82 69 59 55 56 80 78 74 72 69 70 72 71 68 67 67 65 65
130 129 130 130 120 113 109 112 117 111 107 107 104 100 93 84 74 69 65 76 81 79 76 75 75 74 73 72 71 67 65 65 65
135 134 133 130 124 119 113 112 118 112 111 110 108 102 94 83 79 66 59 80 79 77 77 76 76 75 74 73 71 69 69 68 67
139 138 139 136 131 123 115 110 112 118 110 106 103 96 89 80 74 70 49 81 82 80 78 78 77 76 75 73 73 71 71 68 68
141 132 134 131 123 119 114 112 112 117 117 115 107 95 85 81 72 65 74 84 83 81 79 81 80 79 76 74 71 70 71 71 69
106 113 111 111 117 121 116 110 103 96 97 111 112 95 86 80 69 40 95 91 87 86 86 84 82 81 79 77 74 70 70 68 64
117 119 121 122 122 118 116 111 102 88 80 70 83 104 116 99 107 302 111 99 96 95 91 87 88 88 84 81 80 77 73 74 74
109 107 98 103 101 96 91 88 96 112 110 81 87 124 141 139 164 249 170 117 109 105 103 101 96 93 93 90 87 89 87 83 81
126 127 130 122 117 114 104 99 99 102 107 115 143 152 187 184 200 238 230 177 141 136 134 127 117 116 112 108 107 102 98 92 87
137 143 142 147 143 152 152 151 152 141 86 127 176 233 209 211 205 219 241 228 201 176 168 161 158 150 137 131 128 125 119 114 109
155 155 161 163 165 165 168 170 171 178 141 304 171 227 244 232 223 224 254 248 235 223 203 198 190 184 168 166 160 160 156 149 153
160 163 171 175 167 162 159 176 145 255 243 238 240 209 217 235 229 219 234 269 267 256 249 236 227 211 203 199 189 187 187 180 185
163 168 182 168 164 166 169 175 198 227 232 263 264 219 209 220 222 221 212 215 230 261 258 269 270 241 241 254 233 212 206 200 201
173 183 180 166 165 174 169 173 180 203 234 245 260 256 241 229 205 227 227 225 225 223 251 252 256 277 299 303 331 258 214 211 213
178 189 180 165 165 177 170 177 188 192 208 240 249 244 237 222 207 232 243 234 232 227 224 237 256 294 23 37 38 42 56 242 217
184 196 186 181 188 194 178 152 182 227 210 335 301 261 316 8 314 253 250 272 291 256 245 127 120 89 74 58 64 53 34 15 12
187 184 187 174 163 168 167 151 102 103 151 319 289 360 343 41 37 27 147 98 85 82 72 81 120 106 72 95 74 59 24 353 344
166 183 177 170 161 181 162 157 141 135 92 74 342 22 276 313 45 34 22 130 102 98 87 99 122 111 118 90 65 50 35 357 341
161 155 161 156 147 155 121 140 160 174 169 229 188 194 195 256 295 124 47 35 109 147 100 98 215 148 74 54 61 43 20 335 323
120 142 120 115 250 211 176 189 172 176 163 210 139 178 190 254 262 319 255 282 197 214 153 166 255 49 91 21 309 49 356 293 307